Hourly Data Report for September 20, 2017

All times are specified in Local Standard Time (LST). Add 1 hour to adjust for Daylight Saving Time where and when it is observed.

CORAL HARBOUR A
NUNAVUT

64°11'36.000" N
83°21'34.000" W
62.20 m
2301002
71915
YZS

Download Data

Hourly Data (September 2017)
Hourly Data Report for September 20, 2017
Temp Definition
°C
Dew Point Temp Definition
°C
Rel Hum Definition
%
Wind Dir Definition
10's deg

Wind Spd Definition
km/h
Visibility Definition
km
Stn Press Definition
kPa
Hmdx Definition


Wind Chill Definition


Weather Definition


TIME
00:00 Legend Double Dagger 1.8 0.2 89 5 22 24.1 101.18     LegendNANA
01:00 Legend Double Dagger 1.5 -0.2 88 5 21 24.1 101.26     Mainly Clear
02:00 Legend Double Dagger 1.4 -0.6 87 2 27 24.1 101.30     LegendNANA
03:00 Legend Double Dagger 1.4 -0.5 87 4 19 24.1 101.35     LegendNANA
04:00
05:00
06:00 Legend Double Dagger -0.6 -2.0 90 6 19 24.1 101.47   -6 LegendNANA
07:00 Legend Double Dagger -0.7 -2.1 91 6 14 24.1 101.49   -5 Mostly Cloudy
08:00 Legend Double Dagger 0.8 -1.1 87 6 14 24.1 101.53     LegendNANA
09:00 Legend Double Dagger 2.1 -0.9 81 7 17 24.1 101.57     LegendNANA
10:00 Legend Double Dagger 3.0 -1.0 75 6 16 24.1 101.64     Mostly Cloudy
11:00 Legend Double Dagger 3.0 -1.0 75 1 7 24.1 101.67     LegendNANA
12:00 Legend Double Dagger 3.8 -0.9 72 2 13 24.1 101.61     LegendNANA
13:00 Legend Double Dagger 4.9 -1.0 66 5 14 24.1 101.64     Mainly Clear
14:00 Legend Double Dagger 4.9 -1.0 66 6 18 24.1 101.63     LegendNANA
15:00 Legend Double Dagger 4.9 -0.8 67 8 18 24.1 101.66     LegendNANA
16:00 Legend Double Dagger 4.7 -1.2 65 7 18 24.1 101.68     Mainly Clear
17:00 Legend Double Dagger 3.3 0.6 82 17 24 24.1 101.68     LegendNANA
18:00 Legend Double Dagger 3.5 0.1 78 16 22 24.1 101.66     LegendNANA
19:00 Legend Double Dagger 2.1 -1.3 79 6 19 24.1 101.68     Mostly Cloudy
20:00 Legend Double Dagger 0.4 -1.7 86 5 21 24.1 101.71     LegendNANA
21:00 Legend Double Dagger 0.1 -1.7 88 5 23 24.1 101.68     LegendNANA
22:00 Legend Double Dagger 0.3 -2.0 85 5 7 24.1 101.68     Clear
23:00 Legend Double Dagger -0.5 -2.3 88 3 7 24.1 101.64   -3 LegendNANA

Notes on Data Quality.

Legend

  • E = Estimated
  • M = Missing
  • NA = Not Available
  • ‡ = Partner data that is not subject to review by the National Climate Archives
Date modified: